sat.trackr.live / text

‹ back to catalog

STARLINK-35678

NORAD 66971 · 2025-288N

PAYLOAD ACTIVE UNKNOWN

§ Identity

Operator
Country
US
Launch date
2025-12-08
Launch site
AFETR
Launch vehicle
Mass (kg)
RCS (m²)

Purposes: comms

External: N2YO · Heavens-Above · Gunter

§ Orbital elements

Epoch: 2026-05-25T03:59:45.566304Z

Period
94.27 min
Inclination
43.0023°
Eccentricity
0.0002326
Mean motion
15.27578050 rev/d
Perigee alt
481.5 km
Apogee alt
484.7 km
Semi-major
6,861.2 km
B*
6.0314e-4
RAAN
311.5413°
Arg perigee
265.9181°
Mean anomaly
94.1405°
Rev number
2,698

§ Raw data

STARLINK-356781 66971U 25288N   26145.16649961  .00016371  00000+0  60314-3 0  99982 66971  43.0023 311.5413 0002326 265.9181  94.1405 15.27578050 26984

JSON: /api/v1/satellites/66971 · /tle

For live sub-satellite position, see the globe view (requires WebGL).

§ Visibility from observer

Set your observer location to see the next 7 days of passes ≥ 10°. The values pass through the URL so the page stays shareable.

No JS? Fill the form by hand. The geolocation button needs JavaScript.